Regional Weather Roundup
Issued by NWS

Home | Current Version | Previous Version | Text Only | Print | Product List | Glossary Off
Versions: 1 2 3 4 5 6 7 8 9 10 11 12 13 14 15 16 17 18 19 20 21 22 23 24 25 26 27 28 29 30 31 32 33 34 35 36 37 38 39 40 41 42 43 44 45 46 47 48 49 50

000
ASUS45 KCYS 240610
RWRWY

WYOMING REGIONAL WEATHER ROUNDUP
NATIONAL WEATHER SERVICE CHEYENNE WY
1200 AM MDT THU JUL 24 2014

NOTE:  "FAIR" INDICATES FEW OR NO CLOUDS BELOW 12,000 FEET
WITH NO SIGNIFICANT WEATHER AND/OR OBSTRUCTIONS TO VISIBILITY.

WYZ001-240700-
YELLOWSTONE NATIONAL PARK

CITY           SKY/WX    TMP DP  RH WIND       PRES   REMARKS
LK YELLOWSTONE   N/A     50  39  66 CALM      30.27F
6HR MIN TEMP:  50; 6HR MAX TEMP:  80;

W YELLOWSTONE  NOT AVBL

$$
WYZ002>013-054>058-071-098>099-240700-
NORTHERN WYOMING

CITY           SKY/WX    TMP DP  RH WIND       PRES   REMARKS
JACKSON        CLEAR     57  39  51 CALM      30.14S
CODY           NOT AVBL
GREYBULL       CLEAR     77  48  35 CALM      29.88S
6HR MIN TEMP:  76; 6HR MAX TEMP: 101;

WORLAND        CLEAR     75  42  30 SW8       29.91S
6HR MIN TEMP:  75; 6HR MAX TEMP: 103;

SHERIDAN       PTCLDY    68  56  65 CALM      29.91F
6HR MIN TEMP:  68; 6HR MAX TEMP:  94; 6HR PCP:  0.01;

BUFFALO        PTCLDY    77  51  40 CALM      30.02F
6HR MIN TEMP:  71; 6HR MAX TEMP:  98;

GILLETTE       PTCLDY    80  59  48 SE12G22   30.00R
6HR MIN TEMP:  79; 6HR MAX TEMP:  93; 6HR PCP: TRACE;

HULETT         FAIR      73  55  53 MISG      30.06
NEWCASTLE      FAIR      79  61  53 MISG      30.04

$$
WYZ014>020-022>026-101>103-240700-
CENTRAL WYOMING

CITY           SKY/WX    TMP DP  RH WIND       PRES   REMARKS
BIG PINEY      CLOUDY    67  48  50 S16G26    30.25F
6HR MIN TEMP:  64; 6HR MAX TEMP:  89; 6HR PCP:  0.03;

PINEDALE       MOCLDY    72  41  33 SW29G40   30.31R
DUBOIS         FAIR      63  32  31 W8        30.22R
LANDER         MOCLDY    81  38  21 SW26      30.06F
6HR MIN TEMP:  80; 6HR MAX TEMP:  89;

RIVERTON       PTCLDY    78  37  22 S7        30.09R
6HR MIN TEMP:  77; 6HR MAX TEMP:  95;

CASPER         MOCLDY    82  38  20 S14       30.07S
6HR MIN TEMP:  78; 6HR MAX TEMP:  94;

DOUGLAS        PTCLDY    73  43  33 E13       30.08F
6HR MIN TEMP:  71; 6HR MAX TEMP:  93;


$$
WYZ021-027>030-104>119-240700-
SOUTHERN WYOMING

CITY           SKY/WX    TMP DP  RH WIND       PRES   REMARKS
EVANSTON       CLEAR     69  45  41 SE8       30.24F
6HR MIN TEMP:  65; 6HR MAX TEMP:  89; 6HR PCP:  0.03;

KEMMERER       MOCLDY   N/A N/A N/A CALM      30.26F
FORT BRIDGER   FAIR      74  38  27 SW9       30.27
ROCK SPRINGS   MOCLDY    74  34  23 SE8       30.23S
6HR MIN TEMP:  72; 6HR MAX TEMP:  90;

DIXON          FAIR      79  38  23 S12G21    30.30S
RAWLINS        PTCLDY    72  28  19 CALM      30.26F
6HR MIN TEMP:  66; 6HR MAX TEMP:  93;

SARATOGA       FAIR      72  39  30 SE13      30.32R
LARAMIE        MOCLDY    66  44  45 SW15G21   30.33F
6HR MIN TEMP:  64; 6HR MAX TEMP:  79; 6HR PCP: TRACE;

CHEYENNE       MOCLDY    70  46  42 SW14G22   30.24R
6HR MIN TEMP:  70; 6HR MAX TEMP:  84; 6HR PCP: TRACE;

TORRINGTON     PTCLDY    74  55  51 E12       30.05F
6HR MIN TEMP:  74; 6HR MAX TEMP:  88;

PINE BLUFFS    FAIR      70  46  43 S12       30.18S

$$


USA.gov is the U.S. government's official web portal to all federal, state and local government web resources and services.